Regional Weather Roundup
Issued by NWS Charleston, SC

Current Version | Previous Version | Graphics & Text | Print | Product List | Glossary On
Versions: 1 2 3 4 5 6 7 8 9 10 11 12 13 14 15 16 17 18 19 20 21 22 23 24 25 26 27 28 29 30 31 32 33 34 35 36 37 38 39 40 41 42 43 44 45 46 47 48 49 50
000 ASUS42 KCHS 201927 RWRCHS Regional Weather Roundup National Weather Service Charleston SC 300 PM EDT FRI APR 20 2018 NOTE: "fair" indicates few or no clouds below 12,000 feet with no significant weather and/or obstructions to visibility. Not all stations are quality controlled. Use data with caution, especially dewpoint observations. SCZ027-030-031-034>040-042>050-202000- ...Southeast South Carolina... CITY SKY/WX TMP DP RH WIND PRES REMARKS N Charleston FAIR 68 36 30 NE9 30.28F Waterfront Prk N/A 62 42 47 E12 30.16F Mount Pleasant FAIR 63 39 42 E3 30.29F Johns Island FAIR 63 41 45 E14 30.30F Pinopolis N/A 61 36 39 NW7 30.21F Moncks Corner FAIR 63 28 27 NW6 30.29F Summerville FAIR 64 32 29 N5 30.30F Beaufort MCAS FAIR 67 38 34 E9 30.29F Beaufort Arpt FAIR 63 41 45 E7 30.29F Hilton Head Is SUNNY 63 43 48 NE6G17 30.30F Walterboro FAIR 66 34 30 E5 30.29F Allendale FAIR 66 32 28 CALM 30.28F ...Southern Midlands and Pee Dee... CITY SKY/WX TMP DP RH WIND PRES REMARKS Georgetown FAIR 61 34 36 E9 30.31F Kingstree FAIR 63 28 27 E6 30.30F Orangeburg FAIR 66 28 24 N7 30.31F Barnwell FAIR 66 28 24 CALM 30.30F Aiken FAIR 64 30 27 NE5 30.33F Manning FAIR 61 28 29 N7 30.30F Columbia FAIR 67 24 19 NE7 30.30F Sumter FAIR 66 26 22 CALM 30.28F Florence FAIR 65 27 23 MISG 30.31F Myrtle Beach FAIR 61 35 37 SE10 30.31 N Myrtle Beach FAIR 60 36 40 S9 30.30F $$ GAZ063-065-086>088-099>101-113>116-118-119-134>141-150-202000- ...Southeast Georgia... CITY SKY/WX TMP DP RH WIND PRES REMARKS Savannah Arpt FAIR 68 39 34 NE7 30.29F Hunter AAF FAIR 65 41 41 E12G18 30.27F Fort Stewart FAIR 67 40 38 E3 30.26F Statesboro FAIR 69 30 23 E7 30.29F Sylvania FAIR 68 43 40 SE7 30.30F Claxton FAIR 68 39 34 CALM 30.28F ...CSRA, Central and far Southeast Georgia... CITY SKY/WX TMP DP RH WIND PRES REMARKS Thomson FAIR 65 31 27 E10 30.35F Augusta-Bush FAIR 68 30 24 NE7 30.30F Augusta-Daniel FAIR 68 28 22 NE6 30.31F Swainsboro FAIR 68 36 30 NE6 30.29F Vidalia FAIR 68 41 37 NE9 30.28F Eastman FAIR 70 15 12 NE12 30.29F Hazlehurst FAIR 69 33 27 NE10 30.25F Alma FAIR 70 43 37 VRB7 30.25F Waycross FAIR 70 40 34 E6 30.24F Jesup NOT AVBL Baxley FAIR 66 37 34 NE6 30.25F Brunswick PTSUNNY 63 48 59 NE15G24 30.28S Saint Simons CLOUDY 63 50 62 N18G29 30.26F $$ SCZ027-028-034-036>038-045-046-048>050-GAZ119-141-202000- ...Lake and Supplemental Coastal Observations... STATION/POSITION TIME TEMP WIND PRES WAVE SWELL AIR SEA DIR/SP/G HT/PER HT/PER/DIR (UTC) (F) (DEG/KT/KT) (MB) (FT/S) (FT/S/D) Winyah Bay 1745 56 100/ 10 1027.0 Lake Murray 1820 64 CALM / 4 1026.1 ACE Basin NERRS 1745 65 350/ 4 N/A Fort Pulaski 1900 58 65 80/ 15/ 19 1026.2 Sapelo Island 1800 62 40/ 19 1026.0 $$ ANZ835-935-AMZ111-154-330-350-352-354-370-450-454-472-202000- ...C-MAN and Buoy Observations... STATION/POSITION TIME TEMP WIND PRES WAVE SWELL AIR SEA DIR/SP/G HT/PER HT/PER/DIR (UTC) (F) (DEG/KT/KT) (MB) (FT/S) (FT/S/D) Buoy 41004 1910 58 67 40/ 19/ 25 1025.6 Buoy 41008 1850 59 65 50/ 23/ 29 1024.0F 7/ 6 Folly Beach CMAN 1900 59 80/ 16/ 19 1026.7F Capers Nearshore 1908 57 63 90/ 16/ 19 1026.2F Fripp Nearshore 1908 58 64 70/ 12/ 19 1025.2F STATION/POSITION TIME TEMP WIND PRES WAVE SWELL AIR SEA DIR/SP/G HT/PER HT/PER/DIR (UTC) (F) (DEG/KT/KT) (MB) (FT/S) (FT/S/D) 5E St. Marys GA 1900 66 N/A 7/ 7 2/100/11 Frying Pan Buoy 1910 55 65 50/ 14/ 19 1026.1 Buoy 41025 1910 51 70 20/ 12/ 16 1026.4 Cape Lookout NC 1900 60/ 11/ 12 1026.1F Buoy 41002 1910 65 72 20/ 17/ 21 1022.6 Buoy 41010 1910 76 75 20/ 6/ 8 1020.1 St Augustine FL 1900 64 67 360/ 23/ 26 1022.9F $$

USA.gov is the U.S. government's official web portal to all federal, state and local government web resources and services.